Location: West Sayville
(40.7279°N, 73.0976°W)
Time: 10:18:15
(UTC+00:00)

NOSS 3-3 (A) - Pass Details

Date: 29 October 2020
Orbit: 826 x 1387 km, 63.4° (Epoch: 22 November)

Event Time Altitude Azimuth Distance (km) Brightness Sun altitude
Rises 23:24:19 0° 221° (SW) 3,389 7.5 -18.1°
Reaches altitude 10° 23:26:42 10° 224° (SW) 2,492 6.8 -18.5°
Maximum altitude 23:32:24 68° 307° (NW) 990 4.2 -19.6°
Enters shadow 23:38:34 11° 30° (NNE) 2,695 6.0 -20.8°
